Santiago de Compostela, Spain

9:19 PM CEST on April 25, 2017 (GMT +0200)
Santiago

Weather History for LEST - August, 2013

Change the Weather History Date:

Thursday, August 1, 2013

  Actual Average Record
Temperature  
Mean Temperature 66 °F -  
Max Temperature 75 °F 74 °F 86 °F (1997)
Min Temperature 57 °F 55 °F 48 °F (2002)
Cooling Degree Days 1    
Growing Degree Days 16 (Base 50)    
Moisture  
Dew Point 60 °F    
Average Humidity 85    
Maximum Humidity 100    
Minimum Humidity 57    
Precipitation  
Precipitation 0.00 in - - ()
Sea Level Pressure  
Sea Level Pressure 29.92 in    
Wind  
Wind Speed 5 mph ()    
Max Wind Speed 13 mph    
Max Gust Speed -    
Visibility 5.5 miles    
Events Rain    
Averages and records for this station are not official NWS values.
T = Trace of Precipitation, MM = Missing Value Source: Averaged Metar Reports

Daily Weather History Graph

Daily Weather History Graph

Search for Another Location

Airport or City:

Trip Planner

Search our weather history database for the weather conditions in past years. The results will help you decide how hot, cold, wet, or windy it might be!

Date:

Astronomy

Aug. 01, 2013 Rise Set
Actual Time 7:24 AM CEST 9:54 PM CEST
Civil Twilight 6:52 AM CEST 10:26 PM CEST
Nautical Twilight 6:12 AM CEST 11:06 PM CEST
Astronomical Twilight 5:27 AM CEST 11:51 PM CEST
Moon 2:51 AM CEST (8/1) 5:52 PM CEST (8/1)
Length of Visible Light 15h 33m
Length of Day
14h 29m
Waning Crescent, 25% of the Moon is Illuminated
Aug 1
Waning Crescent
Aug 6
New
Aug 14
First Quarter
Aug 21
Full
Aug 28
Last Quarter

Hourly Weather History & Observations

Time (CEST) Temp. Dew Point Humidity Pressure Visibility Wind Dir Wind Speed Gust Speed Precip Events Conditions
12:00 AM 60.8 °F 59.0 °F 94% 29.98 in 6.2 mi Variable 2.3 mph - N/A   Partly Cloudy
12:30 AM 60.8 °F 60.8 °F 100% 29.98 in - Variable 2.3 mph - N/A   Clear
1:00 AM 59.0 °F 59.0 °F 100% 29.98 in - Calm Calm - N/A   Clear
1:30 AM 59.0 °F 59.0 °F 100% 29.95 in - Calm Calm - N/A   Clear
2:00 AM 59.0 °F 59.0 °F 100% 29.95 in - Calm Calm - N/A   Clear
2:30 AM 57.2 °F 57.2 °F 100% 29.95 in - Variable 1.2 mph - N/A   Clear
3:00 AM 59.0 °F 59.0 °F 100% 29.92 in - Variable 2.3 mph - N/A   Clear
4:00 AM 59.0 °F 59.0 °F 100% 29.92 in 1.9 mi West 3.5 mph - N/A   Scattered Clouds
4:30 AM 59.0 °F 59.0 °F 100% 29.92 in 1.9 mi West 3.5 mph - N/A   Mostly Cloudy
5:00 AM 59.0 °F 59.0 °F 100% 29.92 in 1.6 mi Variable 2.3 mph - N/A   Mostly Cloudy
5:30 AM 59.0 °F 59.0 °F 100% 29.89 in 3.1 mi SW 5.8 mph - N/A   Mostly Cloudy
6:30 AM 59.0 °F 59.0 °F 100% 29.89 in 3.7 mi SSW 5.8 mph - N/A   Mostly Cloudy
7:00 AM 59.0 °F 59.0 °F 100% 29.89 in 5.6 mi SSW 6.9 mph - N/A   Mostly Cloudy
7:30 AM 59.0 °F 59.0 °F 100% 29.89 in 6.2 mi SSW 4.6 mph - N/A   Mostly Cloudy
8:00 AM 59.0 °F 59.0 °F 100% 29.89 in 6.2 mi SW 5.8 mph - N/A   Mostly Cloudy
8:30 AM 60.8 °F 60.8 °F 100% 29.89 in 6.2 mi SSW 5.8 mph - N/A   Mostly Cloudy
9:00 AM 60.8 °F 60.8 °F 100% 29.92 in 6.2 mi SW 5.8 mph - N/A   Mostly Cloudy
9:30 AM 60.8 °F 59.0 °F 94% 29.92 in 6.2 mi SSW 6.9 mph - N/A   Mostly Cloudy
10:00 AM 62.6 °F 59.0 °F 88% 29.92 in 6.2 mi SW 8.1 mph - N/A   Mostly Cloudy
10:30 AM 62.6 °F 57.2 °F 82% 29.92 in 6.2 mi SW 8.1 mph - N/A   Mostly Cloudy
11:00 AM 64.4 °F 59.0 °F 83% 29.92 in 6.2 mi WSW 8.1 mph - N/A   Mostly Cloudy
11:30 AM 66.2 °F 59.0 °F 78% 29.92 in 6.2 mi SW 9.2 mph - N/A   Scattered Clouds
12:00 PM 66.2 °F 59.0 °F 78% 29.92 in 6.2 mi SW 9.2 mph - N/A   Partly Cloudy
12:30 PM 68.0 °F 59.0 °F 73% 29.92 in 6.2 mi SSW 10.4 mph - N/A   Partly Cloudy
1:00 PM 69.8 °F 57.2 °F 64% 29.92 in 6.2 mi SSW 10.4 mph - N/A   Partly Cloudy
1:30 PM 69.8 °F 57.2 °F 64% 29.92 in 6.2 mi SW 11.5 mph - N/A   Partly Cloudy
2:00 PM 73.4 °F 59.0 °F 61% 29.92 in 6.2 mi WSW 9.2 mph - N/A   Partly Cloudy
2:30 PM 73.4 °F 59.0 °F 61% 29.92 in 6.2 mi SW 11.5 mph - N/A   Partly Cloudy
3:00 PM 73.4 °F 59.0 °F 61% 29.92 in 6.2 mi WSW 9.2 mph - N/A   Partly Cloudy
3:30 PM 73.4 °F 59.0 °F 61% 29.89 in 6.2 mi SW 10.4 mph - N/A   Partly Cloudy
4:00 PM 75.2 °F 59.0 °F 57% 29.89 in 6.2 mi SW 12.7 mph - N/A   Partly Cloudy
4:30 PM 75.2 °F 60.8 °F 61% 29.89 in 6.2 mi SSW 11.5 mph - N/A   Partly Cloudy
5:00 PM 75.2 °F 60.8 °F 61% 29.89 in 6.2 mi SW 12.7 mph - N/A   Partly Cloudy
5:30 PM 75.2 °F 60.8 °F 61% 29.89 in 6.2 mi SW 12.7 mph - N/A   Partly Cloudy
6:00 PM 73.4 °F 60.8 °F 65% 29.92 in 6.2 mi SW 12.7 mph - N/A   Partly Cloudy
6:30 PM 73.4 °F 59.0 °F 61% 29.89 in 6.2 mi WSW 11.5 mph - N/A   Partly Cloudy
7:00 PM 73.4 °F 60.8 °F 65% 29.89 in 6.2 mi SW 11.5 mph - N/A   Partly Cloudy
7:30 PM 71.6 °F 60.8 °F 69% 29.89 in 6.2 mi WSW 11.5 mph - N/A   Partly Cloudy
8:00 PM 69.8 °F 60.8 °F 73% 29.89 in 6.2 mi WSW 10.4 mph - N/A   Scattered Clouds
8:30 PM 66.2 °F 60.8 °F 83% 29.92 in 6.2 mi WSW 8.1 mph - N/A   Scattered Clouds
9:00 PM 66.2 °F 60.8 °F 83% 29.92 in 6.2 mi SW 6.9 mph - N/A   Scattered Clouds
9:30 PM 64.4 °F 62.6 °F 94% 29.92 in 6.2 mi SW 6.9 mph - N/A   Mostly Cloudy
10:00 PM 64.4 °F 64.4 °F 100% 29.92 in 6.2 mi SW 6.9 mph - N/A   Light Drizzle
10:30 PM 64.4 °F 64.4 °F 100% 29.92 in 5.6 mi WSW 3.5 mph - N/A   Light Drizzle
10:47 PM 64.4 °F 64.4 °F 100% 29.92 in 2.8 mi Variable 3.5 mph - N/A Rain Rain
11:00 PM 64.4 °F 64.4 °F 100% 29.92 in 2.8 mi SW 8.1 mph - N/A Rain Rain
11:30 PM 62.6 °F 62.6 °F 100% 29.92 in 4.3 mi SW 8.1 mph - N/A   Light Drizzle